Weather in Dunay

Russia / Saint-Petersburg and Leningrad Oblast     59°58′36″N   30°56′11″E
temp.,
°C
wind,
m/s
gust,
m/s
humid.,
%
clouds,
%
prec.,
mm/h
press.,
hPa
HPBL,
m
27 september, mon
mon2700:00+8nnw26979 0.0 1025149
03:00+7nnw279719 0.0 1026153
06:00+7n269796 0.0 1028151
09:00+9nne25907 0.0 1029258
12:00+12nne34735 0.0 1030579
15:00+12ne34705 0.0 1031550
18:00+9nne25875 0.0 1031190
21:00+8nne23955 0.0 103154
28 september, tue
tue2800:00+8ene12940 0.0 103213
03:00+7ese12941 0.0 103326
06:00+6e11952 0.0 103328
09:00+8e248515 0.0 1034162
12:00+12e246513 0.0 1034538
15:00+13ene336114 0.0 1034803
18:00+10ene237795 0.0 103468
21:00+10sse257972 0.0 1035145
29 september, wed
wed2900:00+7s229110 0.0 103633
03:00+5ssw22925 0.0 103730
06:00+5ssw229211 0.0 103731
09:00+7ssw12795 0.0 1037121
12:00+11sse12615 0.0 1037654
15:00+13se12565 0.0 1036944
18:00+9ese11735 0.0 103618
21:00+7s12825 0.0 103612
30 september, thu
thu3000:00+6ssw22865 0.0 103626
03:00+5ssw22895 0.0 103628
06:00+4s22895 0.0 103634
09:00+7s23775 0.0 1036129
12:00+11sse23595 0.0 1035584
15:00+13sse24545 0.0 1034875
18:00+10sse23725 0.0 103346
21:00+7s26845 0.0 1033117
1 october, fri
fri100:00+6s26865 0.0 1033119
03:00+5s27905 0.0 1032132
06:00+4s389125 0.0 1032153
09:00+6s3107874 0.0 1031278
12:00+11s475945 0.0 1031611
15:00+13ssw455523 0.0 1030880
18:00+10s377197 0.0 1029201
21:00+10s31075100 0.0 1029372